Probability
0 0 0 0 0 0 0 0 0 0 0 0 0 0 0 0 0 0 0 0 0 0 0 0 0 0 0 0 0 0 0 0 0 0 0 0 0 0 0 0 0 0 0
0 0 0 0 0 0 0 0 0 0 0 0 0 0 0 0 0 0 0 0 0 0 0 0 0 0 0 0 0 0 0 0 0 0 0 0 0 0 0 0 0 0 0
0 0 0 0 0 0 0 0 0 0 0 0 0 0 0 0 0 0 0 0 0 0 0 0 0 0 0 0 0 0 0 0 0 0 0 0 0 0 0 0 0 0 0
0 0 0 0 0 0 0 0 0 0 0 0 0 0 0 0 0 0 0 0 0 0 0 0 0 0 0 0 0 0 0 0 0 0 0 0 0 0 0 0 0 0 0
0 0 0 0 0 0 0 0 0 0 0 0 0 0 0 0 0 0 0 0 0 0 0 0 0 0 0 0 0 0 0 0 0 0 0 0 0 0 0 0 0 0 0
0 0 0 0 0 0 0 0 0 0 0 0 0 0 0 0 0 0 0 0 0 0 0 0 0 0 0 0 0 0 0 0 0 0 0 0 0 0 0 0 0 0 0
0 0 0 0 0 0 0 0 0 0 0 0 0 0 0 0 0 0 0 0 0 0 0 0 0 0 0 0 0 0 0 0 0 0 0 0 0 0 0 0 0 0 0
0 0 0 0 0 0 0 0 0 0 0 0 0 0 0 0 0 0 0 0 0 0 0 0 0 0 0 0 0 0 0 0 0 0 0 0 0 0 0 0 0 0 0
0 0 0 0 0 0 0 0 0 0 0 0 0 0 0 0 0 0 0 0 0 0 0 0 0 0 0 0 0 0 0 0 0 0 0 0 0 0 0 0 0 0 0
0 0 0 0 0 0 0 0 0 0 0 0 0 0 0 0 0 0 0 0 0 0 0 0 0 0 0 0 0 0 0 0 0 0 0 0 0 0 0 0 0 0 0
0 0 0 0 0 0 0 0 0 0 0 0 0 0 0 0 0 0 0 0 0 0 0 0 0 0 0 0 0 0 0 0 0 0 0 0 0 0 0 0 0 0 0
0 0 0 0 0 0 0 0 0 0 0 0 0 0 0 0 0 0 0 0 0 0 0 0 0 0 0 0 0 0 0 0 0 0 0 0 0 0 0 0 0 0 0
0 0 0 0 0 0 0 0 0 0 0 0 0 0 0 0 0 0 0 0 0 0 0 0 0 0 0 0 0 0 0 0 0 0 0 0 0 0 0 0 0 0 0
0 0 0 0 0 0 0 0 0 0 0 0 0 0 0 0 0 0 0 0 0 0 0 0 0 0 0 0 0 0 0 0 0 0 0 0 0 0 0 0 0 0 0
0 0 0 0 0 0 0 0 0 0 0 0 0 0 0 0 0 0 0 0 0 0 0 0 0 0 0 0 0 0 0 0 0 0 0 0 0 0 0 0 0 0 0
0 0 0 0 0 0 0 0 0 0 0 0 0 0 0 0 0 0 0 0 0 0 0 0 0 0 0 0 0 0 0 0 0 0 0 0 0 0 0 0 0 0 0
0 0 0 0 0 0 0 0 0 0 0 0 0 0 0 0 0 0 0 0 0 0 0 0 0 0 0 0 0 0 0 0 0 0 0 0 0 0 0 0 0 0 0
0 0 0 0 0 0 0 0 0 0 0 0 0 0 0 0 0 0 0 0 0 0 0 0 0 0 0 0 0 0 0 0 0 0 0 0 0 0 0 0 0 0 0
0 0 0 0 0 0 0 0 0 0 0 0 0 0 0 0 0 0 0 0 0 0 0 0 0 0 0 0 0 0 0 0 0 0 0 0 0 0 0 0 0 0 0
0 0 0 0 0 0 0 0 0 0 0 0 0 0 0 0 0 0 0 0 0 0 0 0 0 0 0 0 0 0 0 0 0 0 0 0 0 0 0 0 0 0 0
0 0 0 0 0 0 0 0 0 0 0 0 0 0 0 0 0 0 0 0 0 0 0 0 0 0 0 0 0 0 0 0 0 0 0 0 0 0 0 0 0 0 0
0 0 0 0 0 0 0 0 0 0 0 0 0 0 0 0 0 0 0 0 0 0 0 0 0 0 0 0 0 0 0 0 0 0 0 0 0 0 0 0 0 0 0
0 0 0 0 0 0 0 0 0 0 0 0 0 0 0 0 0 0 0 0 0 0 0 0 0 0 0 0 0 0 0 0 0 0 0 0 0 0 0 0 0 0 0
0 0 0 0 0 0 0 0 0 0 0 0 0 0 0 0 0 0 0 0 0 0 0 0 0 0 0 0 0 0 0 0 0 0 0 0 0 0 0 0 0 0 0
0 0 0 0 0 0 0 0 0 0 0 0 0 0 0 0 0 0 0 0 0 0 0 0 0 0 0 0 0 0 0 0 0 0 0 0 0 0 0 0 0 0 0
0 0 0 0 0 0 0 0 0 0 0 0 0 0 0 0 0 0 0 0 0 0 0 0 0 0 0 0 0 0 0 0 0 0 0 0 0 0 0 0 0 0 0
Wind_Speed
16 15 14 14 14 15 14 16 16 17 18 18 19 20 19 18 16 13 10 8 7 5 3 2 3 3 3 2 3 3 3 3 4 2 1 1 2 4 4 3 4 6 8
15 15 15 15 15 15 15 16 17 17 17 17 18 19 19 18 17 16 14 10 7 4 1 1 2 2 3 2 3 3 3 3 4 3 2 2 2 3 4 4 3 4 6
15 15 15 15 16 16 16 16 16 17 17 16 16 17 18 18 16 17 16 14 11 8 5 2 3 3 3 2 3 3 2 2 2 3 2 2 2 2 4 3 3 3 4
15 14 14 15 15 15 15 16 16 16 16 16 15 15 16 17 14 14 15 15 14 12 11 9 7 4 3 3 3 3 3 3 3 3 2 2 2 2 3 4 4 3 3
14 15 15 14 14 14 14 15 16 16 17 16 15 14 15 14 12 12 12 14 14 14 13 12 13 14 11 6 4 3 3 2 2 2 2 2 2 2 3 3 4 5 5
13 14 15 15 15 15 14 15 15 15 15 15 15 14 14 13 20 18 13 11 12 13 13 13 13 15 17 18 18 15 10 5 2 2 2 3 2 1 1 4 6 6 4
12 13 14 14 15 15 15 15 15 14 14 14 14 14 14 18 25 18 16 9 10 10 11 11 10 11 13 10 15 19 19 19 13 4 4 3 3 2 1 3 3 4 4
12 12 13 13 14 14 13 14 13 11 11 11 12 13 13 17 27 22 14 8 7 9 9 9 9 10 10 10 10 11 11 11 12 10 8 7 6 5 4 2 5 8 7
11 12 12 12 13 13 13 13 12 10 10 10 10 12 13 16 24 24 14 5 5 7 8 9 8 8 14 14 10 9 11 11 18 23 22 20 22 19 11 5 4 5 4
12 12 12 12 13 11 12 12 12 11 11 11 10 10 12 13 22 23 17 5 5 6 7 9 12 11 14 14 8 8 9 9 9 11 14 16 15 17 19 11 6 4 4
12 12 12 12 11 9 10 10 11 12 12 10 10 10 9 14 19 23 19 6 5 5 5 6 7 15 18 19 13 8 11 9 8 9 9 9 9 9 10 10 9 6 5
12 12 12 11 11 11 9 9 9 10 10 9 8 9 9 10 16 18 20 14 7 4 3 4 6 18 20 19 14 15 16 11 7 7 8 8 8 8 7 8 10 10 10
12 12 12 12 10 9 8 8 8 7 8 9 8 9 9 9 12 19 19 18 14 5 3 4 11 16 16 13 17 18 13 8 7 7 7 7 6 6 6 6 7 8 10
14 13 12 11 10 8 9 8 7 7 7 9 8 8 8 9 9 8 7 8 9 6 6 10 14 16 13 13 12 10 8 8 7 7 6 5 5 6 6 6 5 4 5
14 13 13 12 10 8 8 7 10 7 9 10 6 5 7 7 11 17 11 9 6 3 5 5 5 6 6 6 6 7 7 7 7 6 5 5 5 6 6 5 5 4 4
14 14 12 11 10 10 10 10 14 14 18 17 15 12 10 13 15 16 17 17 17 15 9 6 6 6 6 6 6 5 5 6 5 5 5 5 5 4 4 4 5 4 4
15 15 12 12 11 11 11 10 10 10 14 15 14 14 13 13 13 14 14 14 15 14 8 6 6 5 5 4 4 3 3 3 3 3 3 3 3 3 3 4 4 3 3
15 16 15 11 11 10 10 10 8 8 7 6 9 13 13 11 10 11 12 10 7 8 5 5 5 4 4 4 3 2 2 2 2 2 2 2 2 2 3 3 3 2 2
14 12 11 10 10 10 10 9 7 7 7 6 5 7 9 9 8 8 8 3 3 3 3 3 3 3 3 3 3 2 2 1 1 1 1 1 1 1 1 1 2 4 2
11 20 19 12 10 10 10 9 8 7 6 5 4 4 4 4 2 2 2 1 1 1 2 2 2 2 2 2 2 2 2 2 1 1 1 1 1 1 2 2 2 2 2
10 13 20 13 10 10 10 9 8 7 6 5 4 6 8 3 2 2 1 1 1 1 2 2 2 2 2 1 1 2 2 2 2 2 2 2 2 2 3 3 3 3 3
9 10 10 11 11 11 11 9 8 7 6 5 3 4 7 2 0 1 1 1 2 2 2 2 2 2 2 2 2 3 3 3 3 3 3 3 3 3 3 3 4 3 4
9 11 11 11 10 15 14 10 9 8 6 4 2 1 1 1 1 1 1 2 2 2 2 2 3 3 3 3 3 4 4 4 4 5 4 4 4 4 4 5 6 5 5
10 11 12 11 11 11 11 12 11 11 8 6 3 1 0 0 1 2 2 2 2 2 3 3 3 5 6 5 4 4 5 6 6 6 8 7 7 6 6 6 7 8 7
10 11 11 10 10 10 10 11 11 11 10 8 6 4 2 1 1 2 2 2 2 3 4 4 3 4 6 7 7 6 11 16 14 9 8 8 9 9 9 9 8 8 8
10 11 10 8 8 9 9 9 10 10 9 8 7 5 4 2 2 2 2 2 3 3 4 4 5 6 7 7 8 12 16 17 17 15 7 5 7 7 8 8 9 9 9
Wind_Direction
339 336 334 334 335 335 334 331 330 330 332 336 337 336 337 339 336 327 313 297 283 269 250 206 178 141 156 152 132 125 122 126 142 158 130 94 119 138 130 123 139 143 149
337 335 334 334 336 337 335 333 332 333 334 339 341 342 343 347 350 348 344 341 327 306 268 145 114 106 108 110 117 118 125 124 133 150 138 109 111 138 132 136 138 142 145
338 336 335 336 337 336 335 334 335 336 336 339 344 345 344 348 359 0 359 359 360 359 5 46 83 102 100 96 100 106 112 110 107 128 130 93 91 103 110 103 112 118 146
338 336 336 336 334 333 335 336 337 338 338 339 342 345 345 343 357 11 8 7 6 8 12 23 35 54 78 90 92 101 110 112 114 116 116 101 91 86 118 126 112 95 92
336 337 336 335 333 333 337 339 338 339 340 338 339 344 346 343 351 24 17 11 11 13 16 19 25 32 44 65 87 79 93 112 122 130 128 117 110 118 143 134 122 107 62
332 333 335 337 338 338 339 341 340 339 338 340 341 343 347 345 353 29 35 17 15 17 18 18 19 24 27 39 56 61 64 70 97 114 125 130 111 72 110 140 138 138 120
329 330 334 336 338 339 342 342 340 337 337 341 342 345 346 344 357 20 36 30 22 21 21 19 19 23 33 34 42 44 43 46 53 68 77 80 89 34 89 140 131 108 115
327 329 332 335 337 338 342 341 337 334 335 337 338 342 344 345 355 10 29 30 25 23 22 20 18 22 41 49 51 52 48 48 53 54 61 60 64 51 40 83 110 101 83
330 332 332 332 335 338 343 339 336 333 334 337 340 343 346 344 349 360 23 18 27 20 15 16 27 31 50 58 55 56 52 41 47 58 58 52 51 50 47 62 93 116 101
331 330 329 330 332 335 339 336 336 337 341 343 343 344 345 343 349 358 17 16 24 21 14 8 24 49 61 67 58 59 61 53 54 54 53 49 45 41 43 40 39 71 95
325 326 328 327 322 331 334 331 334 340 341 342 342 340 341 349 352 355 10 28 26 27 26 12 19 52 62 63 62 69 81 74 62 62 59 53 48 43 39 39 39 47 73
319 321 321 321 319 332 327 324 329 333 337 334 339 343 344 343 349 352 5 16 38 40 37 13 39 60 60 59 56 58 67 67 60 59 57 50 46 41 39 43 53 60 66
316 314 312 313 312 313 316 317 323 327 332 333 343 346 341 341 340 351 2 4 12 29 29 88 81 68 58 50 54 58 55 51 54 57 56 50 45 39 37 43 55 68 67
313 311 310 309 306 302 308 316 318 318 319 324 340 341 334 335 334 343 351 353 0 23 37 59 70 73 69 63 57 52 51 58 60 57 55 48 44 45 41 34 36 47 66
310 308 310 311 305 299 299 298 305 301 306 317 326 322 328 328 339 0 14 8 7 54 81 73 68 66 66 65 64 62 58 54 55 51 49 49 47 47 42 34 33 40 61
312 314 314 314 312 311 307 302 299 306 317 321 321 325 328 337 353 12 18 21 31 50 58 54 55 55 57 59 62 62 60 59 56 57 49 46 46 47 48 46 49 48 58
312 314 313 315 313 310 308 307 306 309 315 321 323 325 329 343 4 18 26 27 36 46 48 44 42 40 41 45 50 56 57 58 57 58 54 40 40 39 43 47 48 47 49
315 315 318 311 310 311 314 312 307 308 313 314 319 321 325 341 4 23 37 40 31 37 36 36 32 28 27 27 28 35 44 47 55 64 61 46 30 24 26 30 30 26 28
321 319 320 323 326 325 322 319 311 306 304 303 303 312 324 336 353 16 42 47 29 23 20 21 19 16 15 14 11 12 13 7 21 31 25 20 16 7 353 347 340 339 10
323 332 340 338 332 326 322 317 311 305 298 290 285 286 298 310 315 335 9 18 25 5 355 352 349 352 356 355 350 351 348 335 330 306 290 284 271 256 264 277 282 286 279
332 334 340 338 328 325 322 320 317 312 301 290 276 275 278 257 234 243 259 291 305 307 310 311 310 311 309 297 293 297 295 288 277 264 264 261 250 243 246 252 258 260 265
336 332 333 334 334 334 339 337 329 321 312 299 280 289 311 350 168 226 246 277 283 276 272 275 281 277 265 258 254 255 257 258 256 248 246 245 241 241 243 244 246 248 250
335 337 339 339 341 348 353 348 346 342 336 324 297 281 293 303 274 257 259 271 283 288 289 279 277 280 273 258 244 235 240 245 241 232 232 237 235 233 230 233 237 240 242
341 342 342 345 351 356 358 358 358 360 3 7 7 5 346 295 303 303 295 288 288 289 286 278 270 273 279 277 263 251 242 248 241 233 228 229 234 236 232 233 237 238 241
344 344 345 350 356 358 359 1 4 6 9 14 17 17 17 1 313 304 304 300 297 292 292 289 276 276 278 277 274 269 277 280 276 256 223 224 232 234 235 237 240 239 236
345 344 345 351 357 359 359 360 2 4 6 9 10 7 4 357 340 325 318 311 302 294 292 288 281 280 278 277 277 282 289 291 291 289 272 235 234 239 236 237 237 238 237